Tiempo cada hora Dagbash

Hoy, 28 Noviembre, Sábado

Tiempo Temperatura Precipitaciones Viento Presión Humedad
00:00 -7°C° 0 mm 2 mps 602 mmHg 48%
01:00 -7°C° 0 mm 2 mps 602 mmHg 46%
02:00 -7°C° 0 mm 2 mps 602 mmHg 43%
03:00 -8°C° 0 mm 3 mps 602 mmHg 41%
04:00 -6°C° 0 mm 2 mps 602 mmHg 39%
05:00 -6°C° 0 mm 2 mps 602 mmHg 37%
06:00 -6°C° 0 mm 2 mps 602 mmHg 35%
07:00 -5°C° 0 mm 2 mps 602 mmHg 37%
08:00 -3°C° 0 mm 2 mps 603 mmHg 40%
09:00 +1°C° 0 mm 1 mps 604 mmHg 42%
10:00 +2°C° 0 mm 1 mps 604 mmHg 44%
11:00 +3°C° 0 mm 1 mps 604 mmHg 46%
12:00 +4°C° 0 mm 1 mps 604 mmHg 48%
13:00 +2°C° 0 mm 2 mps 603 mmHg 48%
14:00 +2°C° 0 mm 2 mps 603 mmHg 48%
15:00 +1°C° 0 mm 2 mps 602 mmHg 49%
16:00 -2°C° 0 mm 2 mps 601 mmHg 44%
17:00 -3°C° 0 mm 2 mps 601 mmHg 39%
18:00 -5°C° 0 mm 2 mps 600 mmHg 34%
19:00 -5°C° 0 mm 2 mps 600 mmHg 33%
20:00 -5°C° 0 mm 2 mps 600 mmHg 32%
21:00 -5°C° 0 mm 2 mps 600 mmHg 31%
22:00 -5°C° 0 mm 2 mps 600 mmHg 30%
23:00 -6°C° 0 mm 3 mps 600 mmHg 28%

Mañana, 29 Noviembre, Domingo

Tiempo Temperatura Precipitaciones Viento Presión Humedad
00:00 -6°C° 0 mm 3 mps 600 mmHg 27%
01:00 -5°C° 0 mm 2 mps 600 mmHg 29%
02:00 -5°C° 0 mm 2 mps 600 mmHg 31%
03:00 -5°C° 0 mm 2 mps 600 mmHg 34%
04:00 -4°C° 0 mm 2 mps 600 mmHg 37%
05:00 -4°C° 0 mm 2 mps 600 mmHg 41%
06:00 -4°C° 0 mm 2 mps 600 mmHg 44%
07:00 -3°C° 0 mm 2 mps 601 mmHg 47%
08:00 -2°C° 0 mm 2 mps 602 mmHg 49%
09:00 +2°C° 0 mm 1 mps 603 mmHg 52%
10:00 +3°C° 0 mm 1 mps 603 mmHg 55%
11:00 +3°C° 0 mm 1 mps 603 mmHg 57%
12:00 +3°C° 0 mm 0 mps 603 mmHg 60%
13:00 +3°C° 0 mm 0 mps 603 mmHg 61%
14:00 +2°C° 0 mm 0 mps 602 mmHg 61%
15:00 +2°C° 0 mm 0 mps 602 mmHg 62%
16:00 +1°C° 0 mm 0 mps 602 mmHg 61%
17:00 +1°C° 0 mm 1 mps 601 mmHg 60%
18:00 0°C° 0 mm 1 mps 601 mmHg 60%
19:00 0°C° 0 mm 1 mps 601 mmHg 58%
20:00 0°C° 0 mm 1 mps 601 mmHg 56%
21:00 0°C° 0 mm 1 mps 601 mmHg 55%
22:00 0°C° 0 mm 1 mps 601 mmHg 56%
23:00 0°C° 0 mm 1 mps 601 mmHg 57%

Pasado mañana, 30 Noviembre, Lunes

Tiempo Temperatura Precipitaciones Viento Presión Humedad
00:00 -1°C° 0 mm 1 mps 601 mmHg 58%
01:00 -1°C° 0 mm 1 mps 601 mmHg 57%
02:00 -2°C° 0 mm 0 mps 601 mmHg 56%
03:00 -2°C° 0 mm 0 mps 601 mmHg 55%
04:00 -2°C° 0 mm 0 mps 600 mmHg 55%
05:00 -2°C° 0 mm 0 mps 600 mmHg 54%
06:00 -1°C° 0 mm 1 mps 600 mmHg 53%
07:00 0°C° 0 mm 1 mps 601 mmHg 57%
08:00 -1°C° 0 mm 0 mps 601 mmHg 60%
09:00 0°C° 0 mm 0 mps 601 mmHg 63%
10:00 +1°C° 0 mm 1 mps 601 mmHg 66%
11:00 +2°C° 0 mm 1 mps 601 mmHg 68%
12:00 +2°C° 0 mm 1 mps 601 mmHg 70%
13:00 +2°C° 0 mm 1 mps 601 mmHg 74%
14:00 +2°C° 0 mm 1 mps 601 mmHg 79%
15:00 +1°C° 0 mm 1 mps 601 mmHg 83%
16:00 +1°C° 0 mm 1 mps 600 mmHg 85%
17:00 0°C° 0 mm 1 mps 600 mmHg 88%
18:00 -1°C° 0 mm 1 mps 600 mmHg 90%
19:00 -1°C° 0.1 mm 1 mps 600 mmHg 91%
20:00 -2°C° 0.1 mm 1 mps 600 mmHg 92%
21:00 -2°C° 0.1 mm 1 mps 600 mmHg 93%
22:00 -2°C° 0.1 mm 1 mps 599 mmHg 92%
23:00 -2°C° 0.1 mm 1 mps 599 mmHg 92%

1 Diciembre, Martes

Tiempo Temperatura Precipitaciones Viento Presión Humedad
00:00 -4°C° 0.1 mm 2 mps 599 mmHg 92%
01:00 -5°C° 0 mm 2 mps 599 mmHg 91%
02:00 -5°C° 0 mm 2 mps 598 mmHg 90%
03:00 -5°C° 0 mm 2 mps 598 mmHg 90%
04:00 -5°C° 0 mm 2 mps 598 mmHg 89%
05:00 -6°C° 0 mm 2 mps 598 mmHg 88%
06:00 -6°C° 0 mm 2 mps 598 mmHg 88%
07:00 -5°C° 0 mm 2 mps 598 mmHg 86%
08:00 -5°C° 0 mm 2 mps 599 mmHg 84%
09:00 -4°C° 0 mm 2 mps 599 mmHg 82%
10:00 -3°C° 0 mm 2 mps 599 mmHg 81%
11:00 -3°C° 0 mm 2 mps 599 mmHg 79%
12:00 0°C° 0 mm 1 mps 600 mmHg 77%
13:00 0°C° 0 mm 1 mps 599 mmHg 78%
14:00 0°C° 0 mm 1 mps 599 mmHg 80%
15:00 0°C° 0 mm 1 mps 599 mmHg 82%
16:00 -2°C° 0 mm 1 mps 599 mmHg 84%
17:00 -3°C° 0 mm 1 mps 598 mmHg 86%
18:00 -4°C° 0 mm 1 mps 598 mmHg 88%
19:00 -4°C° 0 mm 1 mps 598 mmHg 87%
20:00 -4°C° 0 mm 1 mps 598 mmHg 86%
21:00 -6°C° 0 mm 1 mps 599 mmHg 86%
22:00 -6°C° 0 mm 1 mps 599 mmHg 86%
23:00 -6°C° 0 mm 1 mps 599 mmHg 86%

2 Diciembre, Miércoles

Tiempo Temperatura Precipitaciones Viento Presión Humedad
00:00 -6°C° 0 mm 1 mps 599 mmHg 86%
01:00 -6°C° 0 mm 1 mps 599 mmHg 85%
02:00 -6°C° 0 mm 1 mps 599 mmHg 84%
03:00 -6°C° 0 mm 1 mps 598 mmHg 84%
04:00 -6°C° 0 mm 1 mps 599 mmHg 81%
05:00 -6°C° 0 mm 1 mps 599 mmHg 78%
06:00 -6°C° 0 mm 1 mps 599 mmHg 76%
07:00 -4°C° 0 mm 1 mps 599 mmHg 73%
08:00 -3°C° 0 mm 1 mps 600 mmHg 71%
09:00 -2°C° 0 mm 1 mps 600 mmHg 68%
10:00 -1°C° 0 mm 1 mps 601 mmHg 67%
11:00 0°C° 0 mm 1 mps 601 mmHg 66%
12:00 +1°C° 0 mm 1 mps 601 mmHg 64%
13:00 +1°C° 0 mm 1 mps 601 mmHg 68%
14:00 0°C° 0 mm 1 mps 601 mmHg 71%
15:00 0°C° 0 mm 1 mps 600 mmHg 74%
16:00 -2°C° 0 mm 1 mps 600 mmHg 75%
17:00 -3°C° 0 mm 1 mps 600 mmHg 75%
18:00 -4°C° 0 mm 1 mps 599 mmHg 76%
19:00 -4°C° 0 mm 1 mps 599 mmHg 74%
20:00 -6°C° 0 mm 1 mps 599 mmHg 71%
21:00 -6°C° 0 mm 1 mps 600 mmHg 69%
22:00 -6°C° 0 mm 1 mps 600 mmHg 68%
23:00 -6°C° 0 mm 1 mps 600 mmHg 67%

3 Diciembre, Jueves

Tiempo Temperatura Precipitaciones Viento Presión Humedad
00:00 -6°C° 0 mm 1 mps 600 mmHg 67%
01:00 -6°C° 0 mm 1 mps 600 mmHg 67%
02:00 -6°C° 0 mm 1 mps 600 mmHg 68%
03:00 -6°C° 0 mm 1 mps 600 mmHg 69%
04:00 -6°C° 0 mm 1 mps 600 mmHg 69%
05:00 -6°C° 0 mm 1 mps 600 mmHg 70%
06:00 -6°C° 0 mm 1 mps 600 mmHg 71%
07:00 -4°C° 0 mm 1 mps 600 mmHg 70%
08:00 -3°C° 0 mm 1 mps 601 mmHg 69%
09:00 -2°C° 0 mm 1 mps 602 mmHg 68%
10:00 -1°C° 0 mm 1 mps 602 mmHg 68%
11:00 0°C° 0 mm 1 mps 603 mmHg 68%
12:00 +1°C° 0 mm 1 mps 603 mmHg 68%
13:00 +1°C° 0 mm 1 mps 603 mmHg 71%
14:00 0°C° 0 mm 1 mps 602 mmHg 74%
15:00 0°C° 0 mm 1 mps 602 mmHg 77%
16:00 -1°C° 0 mm 1 mps 602 mmHg 79%
17:00 -3°C° 0 mm 1 mps 601 mmHg 81%
18:00 -4°C° 0 mm 1 mps 601 mmHg 84%
19:00 -4°C° 0 mm 1 mps 601 mmHg 83%
20:00 -6°C° 0 mm 2 mps 601 mmHg 83%
21:00 -6°C° 0 mm 2 mps 601 mmHg 83%
22:00 -6°C° 0 mm 2 mps 601 mmHg 83%
23:00 -6°C° 0 mm 2 mps 601 mmHg 83%
Mostrar más

Necesitamos Su Consentimiento

Meteoprog y nuestros Proveedores de Servicios pueden almacenar y acceder a sus datos personales como cookies, identificadores de dispositivo u otras tecnologías similares de su dispositivo y procesar dichos datos para personalizar contenido y anuncios, además de ofrecer funciones de redes sociales y analizar el tráfico.

  • Almacenar y/o acceder a información en su dispositivo

    Se puede almacenar o acceder a cookies, identificadores de dispositivo u otra información de su dispositivo para los fines anteriormente indicados.

  • Anuncios y contenido personalizados, medición de anuncios y contenido, percepciones del público, y desarrollo de productos

    Los anuncios y el contenido pueden personalizarse en base a su perfil. Se pueden añadir más datos para personalizar mejor los anuncios y contenidos. Se puede medir el rendimiento de los anuncios y contenidos. Se puede obtener la percepción sobre el público que ha visto los anuncios y contenidos. Dichos datos pueden usarse para desarrollar o mejorar la experiencia del usuario, sistemas y software.

Al hacer clic en ‘Estoy De Acuerdo’ usted permitirá el uso de las cookies, identificadores de dispositivo, balizas web u otras tecnologías similares indicadas. Su configuración puede cambiarse desde el navegador de su dispositivo.

Para ciertos fines, los intereses legítimos pueden ser considerados por encima del consentimiento. Puede leer más sobre ello en nuestra Política de Privacidad y Cookies.